Hailey, ID

7:22 PM MDT on April 24, 2018 (GMT -0600)
Friedman Memorial

Weather History for KSUN - January, 2014

Change the Weather History Date:

Friday, January 10, 2014

  Actual Average Record
Temperature  
Mean Temperature 29 °F -  
Max Temperature 44 °F 33 °F 50 °F (1999)
Min Temperature 14 °F 14 °F 1 °F (2011)
Degree Days  
Heating Degree Days 36    
Moisture  
Dew Point 18 °F    
Average Humidity 75    
Maximum Humidity 86    
Minimum Humidity 37    
Precipitation  
Precipitation 0.00 in - - ()
Sea Level Pressure  
Sea Level Pressure 29.94 in    
Wind  
Wind Speed 5 mph (NW)    
Max Wind Speed 12 mph    
Max Gust Speed 20 mph    
Visibility 10 miles    
Events      
Averages and records for this station are not official NWS values.
T = Trace of Precipitation, MM = Missing Value Source: NWS Daily Summary

Daily Weather History Graph

Daily Weather History Graph

Search for Another Location

Airport or City:

Astronomy

Jan. 10, 2014 Rise Set
Actual Time 8:09 AM MST 5:20 PM MST
Civil Twilight 7:37 AM MST 5:52 PM MST
Nautical Twilight 7:01 AM MST 6:28 PM MST
Astronomical Twilight 6:26 AM MST 7:03 PM MST
Moon 1:29 PM MST (1/10) 3:17 AM MST (1/10)
Length of Visible Light 10h 15m
Length of Day
9h 11m
Waxing Gibbous, 75% of the Moon is Illuminated
Jan 10
Waxing Gibbous
Jan 15
Full
Jan 23
Last Quarter
Jan 30
New
Feb 6
First Quarter

Hourly Weather History & Observations

Time (MST) Temp. Windchill Dew Point Humidity Pressure Visibility Wind Dir Wind Speed Gust Speed Precip Events Conditions
12:15 AM 21.2 °F 14.9 °F 14.0 °F 74% 29.90 in 10.0 mi NW 4.6 mph - N/A   Clear
12:35 AM 21.2 °F 13.6 °F 14.0 °F 74% 29.91 in 10.0 mi WNW 5.8 mph - N/A   Clear
12:55 AM 21.2 °F 13.6 °F 14.0 °F 74% 29.91 in 10.0 mi NW 5.8 mph - N/A   Clear
1:15 AM 21.2 °F 14.9 °F 14.0 °F 74% 29.90 in 10.0 mi NNE 4.6 mph - N/A   Clear
1:35 AM 19.4 °F 12.8 °F 14.0 °F 80% 29.90 in 10.0 mi WNW 4.6 mph - N/A   Clear
1:55 AM 19.4 °F - 14.0 °F 80% 29.89 in 10.0 mi Calm Calm - N/A   Scattered Clouds
2:15 AM 19.4 °F - 12.2 °F 74% 29.90 in 10.0 mi Calm Calm - N/A   Scattered Clouds
2:35 AM 19.4 °F 14.3 °F 14.0 °F 80% 29.90 in 10.0 mi NNW 3.5 mph - N/A   Mostly Cloudy
2:55 AM 19.4 °F 11.5 °F 12.2 °F 74% 29.90 in 10.0 mi NW 5.8 mph - N/A   Mostly Cloudy
3:15 AM 19.4 °F 12.8 °F 12.2 °F 74% 29.89 in 10.0 mi North 4.6 mph - N/A   Mostly Cloudy
3:35 AM 17.6 °F 9.3 °F 12.2 °F 79% 29.89 in 10.0 mi NW 5.8 mph - N/A   Mostly Cloudy
3:55 AM 15.8 °F 10.2 °F 12.2 °F 86% 29.88 in 10.0 mi NNW 3.5 mph - N/A   Scattered Clouds
4:15 AM 14.0 °F 6.5 °F 10.4 °F 86% 29.88 in 10.0 mi North 4.6 mph - N/A   Scattered Clouds
4:35 AM 15.8 °F 8.6 °F 12.2 °F 86% 29.88 in 10.0 mi NW 4.6 mph - N/A   Scattered Clouds
4:55 AM 15.8 °F - 12.2 °F 86% 29.88 in 10.0 mi Calm Calm - N/A   Scattered Clouds
5:15 AM 14.0 °F 3.9 °F 10.4 °F 86% 29.87 in 10.0 mi NNW 6.9 mph - N/A   Scattered Clouds
5:35 AM 14.0 °F 5.1 °F 10.4 °F 86% 29.86 in 10.0 mi NNW 5.8 mph - N/A   Clear
5:55 AM 15.8 °F 6.1 °F 12.2 °F 86% 29.86 in 10.0 mi NNW 6.9 mph - N/A   Clear
6:47 AM 15.8 °F 5.1 °F 10.4 °F 79% 29.87 in 10.0 mi WNW 8.1 mph - N/A   Clear
7:47 AM 15.8 °F 5.1 °F 12.2 °F 86% 29.88 in 10.0 mi NW 8.1 mph - N/A   Scattered Clouds
8:47 AM 15.8 °F 10.2 °F 12.2 °F 86% 29.90 in 10.0 mi NNW 3.5 mph - N/A   Mostly Cloudy
9:47 AM 19.4 °F 8.6 °F 15.8 °F 86% 29.91 in 10.0 mi WNW 9.2 mph - N/A   Mostly Cloudy
10:47 AM 26.6 °F 18.2 °F 17.6 °F 69% 29.92 in 10.0 mi West 8.1 mph - N/A   Mostly Cloudy
11:47 AM 33.8 °F 26.4 °F 21.2 °F 60% 29.91 in 10.0 mi NNW 9.2 mph - N/A   Mostly Cloudy
12:47 PM 39.2 °F 33.0 °F 21.2 °F 49% 29.88 in 10.0 mi NNW 9.2 mph - N/A   Scattered Clouds
1:47 PM 44.6 °F 38.8 °F 19.4 °F 37% 29.86 in 10.0 mi West 11.5 mph 19.6 mph N/A   Scattered Clouds
2:47 PM 44.6 °F 40.2 °F 21.2 °F 39% 29.88 in 10.0 mi WSW 8.1 mph - N/A   Scattered Clouds
3:50 PM 42.8 °F 38.6 °F 21.2 °F 42% 29.91 in 10.0 mi SSW 6.9 mph - N/A   Mostly Cloudy
4:47 PM 35.6 °F 28.6 °F 26.6 °F 70% 29.94 in 10.0 mi SE 9.2 mph - N/A   Mostly Cloudy
5:47 PM 33.8 °F 27.7 °F 24.8 °F 70% 29.98 in 10.0 mi South 6.9 mph - N/A   Partly Cloudy
6:47 PM 33.8 °F 28.6 °F 24.8 °F 70% 30.00 in 10.0 mi ESE 5.8 mph - N/A   Mostly Cloudy
7:47 PM 30.2 °F - 24.8 °F 80% 30.01 in 10.0 mi Calm Calm - N/A   Scattered Clouds
8:47 PM 30.2 °F - 24.8 °F 80% 30.04 in 10.0 mi Calm Calm - N/A   Overcast
9:47 PM 32.0 °F - 24.8 °F 75% 30.06 in 10.0 mi Calm Calm - N/A   Mostly Cloudy
10:15 PM 32.0 °F 28.7 °F 26.6 °F 80% 30.07 in 10.0 mi SE 3.5 mph - N/A   Overcast
10:35 PM 32.0 °F 27.5 °F 26.6 °F 80% 30.07 in 10.0 mi North 4.6 mph - N/A   Overcast
10:47 PM 30.2 °F - 24.8 °F 80% 30.07 in 10.0 mi Calm Calm - N/A   Overcast
10:55 PM 30.2 °F - 26.6 °F 86% 30.07 in 10.0 mi Calm Calm - N/A   Overcast
11:15 PM 32.0 °F - 26.6 °F 80% 30.07 in 10.0 mi Calm Calm - N/A   Overcast
11:35 PM 32.0 °F - 26.6 °F 80% 30.07 in 10.0 mi Calm Calm - N/A   Overcast
11:55 PM 30.2 °F - 26.6 °F 86% 30.07 in 10.0 mi Calm Calm - N/A   Mostly Cloudy